Location: Black River Observatory
(43.1000°N, 82.6200°W)
Time: 10:52:54
(UTC-04:00)

Daily predictions for brighter satellites

Satellite Brightness Start Highest point End
(mag) Time Altitude Azimuth Time Altitude Azimuth Time Altitude Azimuth
Cosmos 2251 Rocket 3.8 20:37:43 10° NNW 20:43:02 56° ENE 20:48:17 10° SE
Resurs 01 Rocket 2.4 20:40:43 10° SE 20:44:43 34° ENE 20:48:43 10° N
Cosmos 1437 2.8 20:44:28 10° SSW 20:47:38 82° W 20:50:51 10° N
Cosmos 44 Rocket 3.3 20:42:56 10° SSW 20:47:41 89° ESE 20:52:37 10° NE
Envisat 3.0 20:43:50 10° SSE 20:48:55 81° ENE 20:54:01 10° N
ATLAS CENTAUR R/B 2.2 20:52:16 10° SSE 20:55:09 22° ESE 20:58:07 10° ENE
In-Cosmos 22 Rocket 4.2 20:51:51 10° N 20:57:23 87° WSW 21:02:43 10° S
Cosmos 1340 2.6 20:53:41 10° S 20:57:25 65° E 21:01:12 10° NNE
Timation 1 Rocket 4.4 20:53:15 10° NNW 20:59:14 71° ENE 21:05:11 10° SSE
NOSS 0 Rocket 4.4 21:01:39 10° S 21:07:10 36° ESE 21:12:45 10° NE
Cosmos 1825 3.7 21:06:49 10° NNE 21:09:38 19° ENE 21:11:38 14° ESE
SL-24 R/B - RUBIN 2 3.7 21:06:09 10° NW 21:10:31 73° WSW 21:14:51 10° SSE
BREEZE-M DEB (TANK) 3.3 21:09:07 10° W 21:12:16 39° NNW 21:14:24 10° NE
Thor Agena Rocket 3.6 21:07:48 10° NNE 21:13:04 83° ESE 21:18:21 10° SSW
Cosmos 1666 Rocket 3.6 21:09:54 10° N 21:14:25 86° E 21:18:53 10° S
OE (NEXTSAT) 4.4 21:12:03 10° WSW 21:15:37 86° NNW 21:19:12 10° ENE
SJ-6B 4.1 21:13:08 10° S 21:16:59 43° W 21:20:48 10° NNW
SL-16 R/B 3.8 21:17:50 13° ESE 21:18:21 13° E 21:20:51 10° ENE
SJ-11-01 4.3 21:14:06 10° SSE 21:18:42 65° ENE 21:23:20 10° N
Cosmos 1939 Rocket 2.8 21:15:58 10° SSE 21:19:49 89° WSW 21:23:46 10° NNW
Cosmos 1933 Rocket 4.3 21:16:21 10° N 21:20:23 34° ENE 21:23:24 16° SE
Resurs 1-3 3.6 21:16:08 10° SSE 21:20:31 83° ENE 21:24:56 10° NNW
USA 186 1.6 21:18:40 10° S 21:20:50 51° W 21:23:04 10° NNW
Meteor 2-3 Rocket 3.7 21:15:24 10° N 21:20:59 67° ENE 21:26:35 10° SSE
NOSS 2-1 (C) 3.6 21:18:45 10° SW 21:22:19 65° NW 21:26:22 10° NNE
SL-8 Rocket 4.4 21:16:33 10° SSE 21:22:24 42° E 21:28:15 10° NNE
NOSS 2-1 (D) 3.7 21:19:44 10° SW 21:23:18 62° NW 21:27:21 10° NNE
Meteor 2-21 Rocket 4.4 21:19:17 10° S 21:25:23 81° E 21:31:36 10° N
Cosmos 220 Rocket 4.0 21:22:13 10° NNW 21:26:33 65° ENE 21:29:55 16° SSE
Sich 1 3.5 21:22:45 10° NNW 21:26:59 62° W 21:31:10 10° S
Cosmos 1869 4.4 21:27:19 19° SE 21:28:58 25° E 21:32:16 10° NE
ATLAS 2AS CENTAUR R/B 3.0 21:21:07 10° NW 21:29:07 78° NE 21:35:15 16° SE
ARGOS 4.0 21:25:40 16° ESE 21:29:08 33° ENE 21:33:51 10° N
Cosmos 1151 Rocket 3.3 21:25:25 10° SSE 21:29:26 43° E 21:33:30 10° NNE
Spot 2 Rocket 3.5 21:26:47 10° SSE 21:31:53 79° ENE 21:37:00 10° NNW
Lacrosse 5 4.3 21:33:22 10° NW 21:36:37 17° N 21:39:52 10° NE
BREEZE-M DEB (TANK) 4.0 21:29:33 10° W 21:37:52 42° NNW 21:40:47 10° NE
Nadezhda 3 Rocket 4.4 21:33:33 10° NNW 21:39:48 66° W 21:46:04 10° S
SPOT 5 4.5 21:40:05 15° E 21:41:21 16° ENE 21:44:08 10° NNE
Cosmos 1980 3.7 21:38:59 10° S 21:44:33 60° ESE 21:50:10 10° NNE
Cosmos 1633 Rocket 3.9 21:43:10 10° NNW 21:47:22 49° W 21:51:34 10° SSW
CZ-4B DEB 4.4 21:46:16 28° SSE 21:47:57 67° ENE 21:51:28 10° N
Meteor 2-10 Rocket 4.3 21:46:07 19° SSE 21:49:37 39° E 21:54:58 10° NNE
Meteor 1-27 4.4 21:45:43 10° SSW 21:51:27 76° W 21:57:09 10° N
Cosmos 2333 Rocket 2.4 21:47:27 10° SSW 21:53:06 75° WNW 21:58:47 10° NNE
Cosmos 1455 3.3 21:54:40 10° SSW 21:58:20 45° WNW 22:02:04 10° N
Cosmos 2228 Rocket 3.0 21:54:03 10° S 21:58:26 85° W 22:02:51 10° N
COSMOS 2428 4.0 21:53:05 10° SW 21:58:30 42° WNW 22:03:57 10° NNE
Cosmos 1515 Rocket 3.6 21:54:11 10° S 21:58:38 84° W 22:03:08 10° N
NOSS 3-4 (A) 4.3 21:52:38 10° NNW 21:59:20 47° NE 22:03:34 24° ESE
NOSS 3-4 (C) 4.3 21:52:45 10° NNW 21:59:26 47° NE 22:03:39 24° ESE
Helios 1A 4.1 21:59:12 25° E 21:59:51 27° ENE 22:03:23 10° N
Cosmos 1408 2.5 21:56:26 10° N 22:00:07 90° WNW 22:01:42 32° S
Cosmos 1844 Rocket 4.3 21:55:27 10° NW 22:00:24 32° WSW 22:05:20 10° SSW
NOSS 3-3 (A) 4.5 22:00:50 10° SW 22:06:51 63° NW 22:13:31 10° NNE
NOSS 3-3 (C) 4.5 22:00:56 10° SW 22:06:57 63° NW 22:13:37 10° NNE
Cosmos 407 Rocket 3.9 22:04:38 10° N 22:09:35 46° ENE 22:11:08 35° ESE
H-2A R/B 2.1 22:07:50 34° SE 22:09:45 55° ENE 22:14:37 10° N
SL-8 R/B 3.6 22:05:02 10° SW 22:09:46 67° SSE 22:12:51 22° ENE
Cosmos 2219 Rocket 3.3 22:06:24 10° SW 22:11:50 46° WNW 22:17:17 10° NNE
ERS-1 Rocket 3.2 22:10:13 36° SE 22:11:56 53° ENE 22:16:49 10° N
Cosmos 2237 Rocket 2.1 22:06:34 10° SSW 22:12:11 89° WNW 22:17:52 10° NNE
USA 267 3.6 22:06:41 10° ENE 22:12:39 37° SE 22:18:37 10° SSW
Cosmos 1862 4.0 22:10:18 10° N 22:14:04 37° ENE 22:14:04 37° ENE
MetOp-A 4.0 22:12:25 31° SSE 22:15:06 81° ENE 22:20:30 10° NNW
Cosmos 1371 Rocket 3.9 22:12:36 10° SSW 22:17:54 75° ESE 22:23:16 10° NNE
Genesis I 4.2 22:15:18 10° NW 22:19:10 41° WSW 22:20:28 31° SSW
Cosmos 2278 Rocket 2.4 22:15:01 10° NNW 22:20:39 66° WSW 22:23:35 29° S
Resurs 01 Rocket 3.8 22:17:39 10° SSW 22:21:14 24° W 22:24:50 10° NW
SL-08 RB Rocket 3.5 22:24:45 52° SSE 22:25:50 79° ENE 22:30:19 10° N
Cosmos 405 Rocket 3.7 22:28:05 33° NE 22:28:05 33° NE 22:30:42 10° NNE
ATLAS 5 CENTAUR R/B 4.3 22:23:44 10° N 22:27:28 17° NNE 22:31:07 11° ENE
Cosmos 676 Rocket 4.5 22:23:26 10° N 22:28:27 43° ENE 22:29:20 40° E
Cosmos 1727 Rocket 3.9 22:22:33 10° N 22:28:47 83° E 22:31:34 35° SSE
Cosmos 1821 Rocket 4.5 22:33:03 38° ESE 22:33:52 40° E 22:39:40 10° NNE
ATLAS CENTAUR R/B 3.0 22:30:37 10° WSW 22:33:55 31° NW 22:37:25 10° NNE
Cosmos 2056 Rocket 3.5 22:35:44 21° SSW 22:39:31 90° WNW 22:44:57 10° NNE
Cosmos 1452 Rocket 4.5 22:42:01 31° ENE 22:42:01 31° ENE 22:45:24 10° NE
Cosmos 2098 Rocket 3.6 22:39:29 23° SSW 22:42:13 55° W 22:46:02 10° N
Cosmos 1825 4.0 22:41:56 10° NNW 22:45:12 28° W 22:46:31 22° SW
Landsat 7 4.1 22:46:49 50° ENE 22:46:49 50° ENE 22:51:23 10° N
USA 234 4.3 22:43:06 19° ENE 22:47:06 38° NNE 22:53:01 10° NW
Cosmos 405 3.8 22:45:08 10° NNW 22:48:07 50° WNW 22:48:07 50° WNW
Spot 1 4.4 22:55:32 63° ENE 22:55:32 63° ENE 23:00:16 10° N
Cosmos 1933 4.5 22:57:18 36° NNE 22:57:18 36° NNE 22:59:51 10° NNE
Cosmos 1624 Rocket 4.4 22:52:46 17° SW 22:56:46 60° WNW 23:01:55 10° NNE
Cosmos 1190 Rocket 4.2 22:54:43 10° NNW 22:59:57 62° WSW 23:00:47 54° SSW
SL-16 R/B 2.1 22:59:34 41° SSW 23:01:37 87° WNW 23:07:19 10° NNE
Cosmos 2344 3.5 22:58:40 36° S 23:01:51 60° ESE 23:09:55 10° NE
Terra 2.4 23:05:06 47° NE 23:05:06 47° NE 23:09:08 10° N
GEOS 3 Rocket 3.7 22:59:33 10° NE 23:04:56 77° NW 23:10:11 10° SW
Cosmos 1140 Rocket 3.4 23:01:37 10° NNW 23:06:45 77° ENE 23:06:45 77° ENE
ARGOS 4.4 23:07:10 25° SW 23:09:18 34° W 23:14:11 10° NNW
CZ-4C R/B 3.8 23:13:19 21° ENE 23:13:19 21° ENE 23:15:25 10° NE
Cosmos 1943 Rocket 3.7 23:08:37 10° N 23:12:55 23° NE 23:13:21 22° ENE
Cosmos 1707 Rocket 4.0 23:13:35 58° NW 23:13:35 58° NW 23:17:21 10° N
Cosmos 1954 Rocket 3.9 23:08:08 10° NNW 23:13:15 85° NNW 23:13:15 85° NNW
CZ-2C R/B 3.9 23:14:25 35° NE 23:14:25 35° NE 23:17:56 10° N
SPOT 5 3.2 23:19:19 55° W 23:19:19 55° W 23:23:28 10° NNW
ATLAS 2AS CENTAUR R/B 4.5 23:13:22 10° WNW 23:19:15 24° WSW 23:22:43 17° SW
Helios 1B rocket 3.4 23:16:43 10° N 23:19:46 46° NNW 23:19:46 46° NNW
Lacrosse 5 3.3 23:16:40 10° NW 23:21:04 28° NNE 23:21:58 27° NE
Cosmos 1605 Rocket 4.5 23:24:41 46° ENE 23:24:41 46° ENE 23:30:06 10° NNE
Cosmos 2297 4.4 23:26:27 10° NW 23:31:48 44° WSW 23:32:07 44° WSW
Cosmos 1733 Rocket 4.2 23:28:31 10° N 23:31:26 41° N 23:31:26 41° N
Cosmos 2369 Rocket 2.8 23:35:15 10° NNW 23:40:15 46° NE 23:40:15 46° NE
SPOT 1/Viking Rocket 4.4 23:40:49 41° W 23:40:51 41° W 23:45:48 10° NNW
Meteor 2-17 Rocket 4.4 23:42:28 73° NE 23:42:28 73° NE 23:48:08 10° N
Cosmos 1420 Rocket 4.4 23:45:16 60° N 23:45:16 60° N 23:49:45 10° NNE
Meteor 1-25 Rocket 4.4 23:41:30 10° N 23:46:35 70° N 23:46:35 70° N
H-2A R/B 4.1 23:48:28 17° WSW 23:49:30 18° W 23:52:52 10° NW
NOSS 3-4 (A) 4.4 23:43:38 10° NW 23:50:19 45° WSW 23:51:00 44° SW
Meteor 1-26 Rocket 4.4 23:51:00 65° NNW 23:51:00 65° NNW 23:55:55 10° N
NOSS 3-4 (C) 4.4 23:43:44 10° NW 23:50:26 45° WSW 23:51:06 44° SW
